Hollywood, FL

11:58 AM EDT on March 27, 2017 (GMT -0400)
North Perry

Weather History for KHWO - March, 2014

Change the Weather History Date:

Wednesday, March 26, 2014

  Actual Average (KFLL) Record (KFLL)
Temperature  
Mean Temperature 62 °F -  
Max Temperature 70 °F 79 °F 90 °F (1935)
Min Temperature 54 °F 64 °F 45 °F (1947)
Degree Days  
Heating Degree Days 3    
Growing Degree Days 12 (Base 50)    
Moisture  
Dew Point 46 °F    
Average Humidity 59    
Maximum Humidity 78    
Minimum Humidity 40    
Precipitation  
Precipitation 0.00 in - - ()
Sea Level Pressure  
Sea Level Pressure 30.19 in    
Wind  
Wind Speed 14 mph (North)    
Max Wind Speed 17 mph    
Max Gust Speed 24 mph    
Visibility 10 miles    
Events      
Averages and records for this station are not official NWS values.
T = Trace of Precipitation, MM = Missing Value Source: NWS Daily Summary

Daily Weather History Graph

Daily Weather History Graph

Search for Another Location

Airport or City:

Trip Planner

Search our weather history database for the weather conditions in past years. The results will help you decide how hot, cold, wet, or windy it might be!

Date:

Astronomy

Mar. 26, 2014 Rise Set
Actual Time 7:18 AM EDT 7:35 PM EDT
Civil Twilight 6:55 AM EDT 7:58 PM EDT
Nautical Twilight 6:28 AM EDT 8:25 PM EDT
Astronomical Twilight 6:01 AM EDT 8:52 PM EDT
Moon 4:01 AM EDT (3/26) 3:34 PM EDT (3/26)
Length of Visible Light 13h 02m
Length of Day
12h 16m
Waning Crescent, 22% of the Moon is Illuminated
Mar 26
Waning Crescent
Mar 30
New
Apr 7
First Quarter
Apr 15
Full
Apr 22
Last Quarter

Hourly Weather History & Observations

Time (EDT) Temp. Dew Point Humidity Pressure Visibility Wind Dir Wind Speed Gust Speed Precip Events Conditions
12:53 AM 61.0 °F 50.0 °F 67% 30.06 in 10.0 mi WNW 16.1 mph 24.2 mph N/A   Clear
1:53 AM 59.0 °F 48.9 °F 69% 30.06 in 10.0 mi WNW 16.1 mph - N/A   Clear
2:53 AM 57.9 °F 46.9 °F 67% 30.06 in 10.0 mi NW 16.1 mph - N/A   Clear
3:53 AM 55.9 °F 48.0 °F 75% 30.07 in 10.0 mi NW 12.7 mph - N/A   Clear
4:53 AM 55.0 °F 48.0 °F 77% 30.09 in 10.0 mi NW 10.4 mph - N/A   Clear
5:53 AM 55.9 °F 39.9 °F 55% 30.11 in 10.0 mi North 11.5 mph - N/A   Clear
6:53 AM 54.0 °F 37.0 °F 53% 30.14 in 10.0 mi NNW 12.7 mph - N/A   Clear
7:53 AM 54.0 °F 37.9 °F 55% 30.16 in 10.0 mi NNW 11.5 mph - N/A   Clear
8:53 AM 57.0 °F 39.0 °F 51% 30.20 in 10.0 mi North 12.7 mph - N/A   Clear
9:53 AM 59.0 °F 39.0 °F 48% 30.22 in 10.0 mi North 13.8 mph - N/A   Clear
10:53 AM 61.0 °F 39.9 °F 46% 30.25 in 10.0 mi North 17.3 mph - N/A   Clear
11:53 AM 64.0 °F 41.0 °F 43% 30.25 in 10.0 mi North 17.3 mph - N/A   Clear
12:53 PM 66.0 °F 42.1 °F 42% 30.23 in 10.0 mi North 12.7 mph - N/A   Clear
1:53 PM 68.0 °F 43.0 °F 40% 30.21 in 10.0 mi ENE 15.0 mph 24.2 mph N/A   Clear
2:53 PM 70.0 °F 46.9 °F 44% 30.21 in 10.0 mi NE 13.8 mph - N/A   Clear
3:53 PM 69.1 °F 50.0 °F 51% 30.21 in 10.0 mi North 12.7 mph - N/A   Partly Cloudy
4:53 PM 70.0 °F 48.0 °F 46% 30.21 in 10.0 mi NNE 11.5 mph - N/A   Scattered Clouds
5:53 PM 66.9 °F 52.0 °F 59% 30.21 in 10.0 mi NNE 13.8 mph - N/A   Partly Cloudy
6:53 PM 64.9 °F 53.1 °F 65% 30.22 in 10.0 mi NE 11.5 mph - N/A   Partly Cloudy
7:53 PM 64.0 °F 54.0 °F 70% 30.24 in 10.0 mi NNE 8.1 mph - N/A   Mostly Cloudy
8:53 PM 62.1 °F 53.1 °F 72% 30.25 in 10.0 mi North 8.1 mph - N/A   Scattered Clouds
9:53 PM 61.0 °F 52.0 °F 72% 30.26 in 10.0 mi North 12.7 mph - N/A   Mostly Cloudy
10:53 PM 59.0 °F 52.0 °F 78% 30.27 in 10.0 mi North 5.8 mph - N/A   Partly Cloudy
11:53 PM 59.0 °F 52.0 °F 78% 30.27 in 10.0 mi North 5.8 mph - N/A   Clear